Weather WX

World > North America > United States > New Jersey

Harrington Park, New Jersey Regional Weather

Lat: 40.99N, Lon: 73.98W
Wx Zone: NJZ104
Warning FLW WEATHER ALERT - (More Info. Click Here) Warning
Feedback

Harrington Park, NJ Regional Weather

Expires:201907180700;;236912
ASUS41 KOKX 180614
RWROKX

Regional Weather Roundup
National Weather Service New York NY
200 AM EDT THU JUL 18 2019

Note: "FAIR" indicates few or no clouds below 12,000 feet with no
significant weather and/or obstructions to visibility.


NJZ001-105-106-008-010-013-015-019>022-104-180700-
New Jersey
  
CITY           SKY/WX    TMP DP  RH WIND       PRES   REMARKS
Newark/Liberty CLOUDY    76  74  93 CALM      29.87F                  
Teterboro      FAIR      76  73  91 CALM      29.86F                  
Caldwell       CLOUDY    76  74  93 CALM      29.89F                  
Somerville     CLOUDY    74  73  97 CALM      29.87S FOG              
Linden         CLOUDY    75  73  92 CALM      29.88S                  
Perth Amboy      N/A     75 N/A N/A SW5         N/A                   
Sussex         CLOUDY    73  70  90 CALM      29.90F                  
Andover          N/A     73  72  96 CALM      29.90F                  
Trenton        CLOUDY    74  73  97 S6        29.90R                  
Millville      CLOUDY    77  74  90 S8        29.91S                  
Atlantic City  CLOUDY    77  71  82 S10       29.92F                  
Wrightstown    MOCLDY    73  73  98 CALM      29.90                   
Toms River     CLOUDY   N/A N/A N/A S6        29.92S                  
Belmar         MOCLDY    74  73  97 S9        29.92R                  
$$
 

SKY/WX - Weather  TMP - Temperature  DP - Dew Point  RH - Relative Humidity
WIND - Wind Direction/Speed PRES - Barometric Pressure VSB - Visibility
WCI - Wind Chill Index E13G22 Wind - East Wind 13 mph/Gusts of 22 mph